DW7745 Weather Reports


time (UTC)temp
C
wind
direction
speed
KPH
gust
KPH
rain 1hr
cm
rain 24hr
cm
rain mn
cm
humidity
%
barometer
mb
20260507014514 17 292 0.0 8.0 0.00 0.05 0.05 83 1010.5
20260507013009 17 342 3.2 8.0 0.00 0.05 0.05 83 1010.2
20260507011506 17 150 1.6 11.3 0.00 0.05 0.05 83 1009.9
20260507010006 17 354 4.8 12.9 0.00 0.05 0.05 82 1009.4
20260507004502 17 330 3.2 17.7 0.00 0.05 0.05 82 1009.7
20260507003100 18 350 3.2 11.3 0.00 0.05 0.05 80 1009.3
20260507001603 18 307 3.2 11.3 0.00 0.05 0.05 80 1009.2
20260507000053 18 22 3.2 11.3 0.00 0.05 0.05 79 1009.0
20260506234550 19 151 3.2 11.3 0.00 0.05 0.05 77 1008.7
20260506233100 20 58 1.6 11.3 0.00 0.05 0.05 76 1008.7
20260506231544 20 300 3.2 11.3 0.00 0.05 0.05 75 1008.4
20260506230038 21 30 3.2 12.9 0.00 0.05 0.05 72 1008.3
20260506224536 22 343 3.2 12.9 0.00 0.05 0.05 71 1008.2
20260506223036 23 34 3.2 9.7 0.00 0.05 0.05 70 1007.9
20260506221535 23 333 4.8 14.5 0.00 0.05 0.05 71 1007.8
20260506220036 23 219 3.2 12.9 0.00 0.05 0.05 70 1007.8
20260506214533 23 345 3.2 12.9 0.00 0.05 0.05 70 1007.8
20260506213032 24 109 3.2 12.9 0.00 0.05 0.05 70 1007.5
20260506211533 25 141 3.2 16.1 0.00 0.05 0.05 69 1007.3
20260506210031 26 56 3.2 8.0 0.00 0.05 0.05 68 1007.3
20260506204528 25 148 0.0 11.3 0.00 0.05 0.05 74 1007.5
20260506203027 23 226 4.8 16.1 0.00 0.05 0.05 75 1007.3
20260506201526 25 264 4.8 17.7 0.00 0.05 0.05 73 1007.1
20260506200025 29 279 0.0 6.4 0.00 0.05 0.05 69 1007.3
20260506194524 29 28 0.0 4.8 0.00 0.05 0.05 70 1007.0
20260506193020 28 51 0.0 4.8 0.00 0.05 0.05 74 1007.0
20260506191519 27 117 3.2 6.4 0.00 0.05 0.05 76 1007.2
20260506190019 27 120 3.2 6.4 0.00 0.05 0.05 76 1007.4
20260506184517 26 127 1.6 6.4 0.00 0.05 0.05 76 1007.3
20260506183018 27 21 1.6 11.3 0.00 0.05 0.05 74 1007.8
20260506181512 26 260 0.0 4.8 0.00 0.05 0.05 76 1007.7
20260506180009 25 265 1.6 6.4 0.00 0.05 0.05 77 1007.8
20260506174508 24 230 0.0 4.8 0.00 0.05 0.05 80 1007.9
20260506173006 22 101 1.6 4.8 0.00 0.05 0.05 84 1008.2
20260506171510 22 268 3.2 9.7 0.00 0.05 0.05 84 1008.4
20260506170005 23 203 1.6 11.3 0.00 0.05 0.05 80 1008.4
20260506164505 25 114 1.6 3.2 0.00 0.05 0.05 85 1008.4
20260506163007 25 108 1.6 6.4 0.00 0.05 0.05 86 1008.3
20260506161619 25 108 1.6 3.2 0.00 0.05 0.05 89 1008.5
20260506160059 24 104 0.0 1.6 0.00 0.05 0.05 89 1008.5
20260506154619 23 115 0.0 3.2 0.00 0.05 0.05 90 1008.3
20260506153107 23 97 0.0 1.6 0.00 0.05 0.05 91 1008.0
20260506151557 23 110 0.0 3.2 0.00 0.05 0.05 91 1007.5
20260506150051 23 122 0.0 1.6 0.00 0.05 0.05 92 1007.4
20260506144549 23 84 0.0 1.6 0.00 0.05 0.05 92 1007.3
20260506143103 23 32 0.0 1.6 0.00 0.05 0.05 92 1007.4
20260506141547 23 92 0.0 1.6 0.00 0.05 0.05 92 1007.4
20260506140046 22 96 1.6 6.4 0.00 0.05 0.05 93 1006.9
20260506134545 22 140 1.6 6.4 0.00 0.05 0.05 93 1006.4
20260506133042 22 148 1.6 9.7 0.00 0.05 0.05 94 1006.2
20260506131540 22 142 4.8 9.7 0.00 0.05 0.05 94 1006.2
20260506130039 22 121 3.2 8.0 0.00 0.05 0.05 94 1006.0
20260506124538 22 131 3.2 9.7 0.00 0.05 0.05 94 1006.1
20260506123038 22 122 3.2 6.4 0.00 0.05 0.05 94 1006.0
20260506121541 22 127 1.6 4.8 0.00 0.05 0.05 94 1006.0
20260506120036 22 122 1.6 4.8 0.00 0.05 0.05 94 1005.9
20260506114543 22 120 0.0 4.8 0.00 0.05 0.05 94 1005.8
20260506113036 22 143 0.0 3.2 0.00 0.05 0.05 94 1005.7
20260506111538 22 143 0.0 4.8 0.00 0.05 0.05 94 1005.6
20260506110034 22 249 0.0 6.4 0.00 0.05 0.05 94 1005.7
20260506104534 22 166 1.6 3.2 0.00 0.05 0.05 94 1005.5
20260506103033 22 146 3.2 9.7 0.00 0.05 0.05 94 1005.5
20260506101534 22 214 1.6 9.7 0.03 0.05 0.05 94 1005.5
20260506100031 22 146 3.2 8.0 0.03 0.05 0.05 94 1005.4
20260506094535 22 113 4.8 9.7 0.05 0.05 0.05 94 1005.3
20260506093031 22 216 4.8 9.7 0.05 0.05 0.05 94 1005.2
20260506091530 22 256 3.2 9.7 0.03 0.03 0.03 93 1005.1
20260506090029 22 172 3.2 9.7 0.03 0.03 0.03 93 1005.1
20260506084528 22 174 4.8 14.5 0.00 0.00 0.00 93 1005.0
20260506083027 22 160 4.8 16.1 0.00 0.00 0.00 92 1004.9
20260506081523 23 136 6.4 12.9 0.00 0.00 0.00 89 1005.0
20260506073019 23 141 6.4 11.3 0.00 0.00 0.00 90 1005.5
20260506071516 23 154 6.4 12.9 0.00 0.00 0.00 89 1005.5
20260506061516 23 140 8.0 12.9 0.00 0.00 0.00 89 1005.8
20260506044503 24 107 8.0 16.1 0.00 0.00 0.00 87 1005.7
20260506043102 24 132 11.3 20.9 0.00 0.00 0.00 87 1005.6
20260506041559 24 165 9.7 16.1 0.00 0.00 0.00 87 1005.5
20260506040104 24 155 8.0 16.1 0.00 0.00 0.00 87 1005.3
20260506034613 24 134 9.7 14.5 0.00 0.00 0.00 86 1005.3
20260506033057 25 132 8.0 14.5 0.00 0.00 0.00 86 1005.1
20260506031604 25 146 9.7 14.5 0.00 0.00 0.00 85 1004.6
20260506030056 25 179 6.4 9.7 0.00 0.00 0.00 84 1004.4
20260506024555 25 142 6.4 11.3 0.00 0.00 0.00 83 1004.4
20260506023054 25 148 6.4 12.9 0.00 0.00 0.00 82 1004.2
20260506021558 26 155 8.0 11.3 0.00 0.00 0.00 80 1003.9
20260506020055 26 139 3.2 6.4 0.00 0.00 0.00 80 1003.8